www.pogodaiklimat.ru

Погода и климат >> Архив погоды >> Антарктида >> Сёва


ПОГОДА на Сёве

  • Прогноз погоды на Сёве
  • Монитор погоды на Сёве

АРХИВ ПОГОДЫ на Сёве

Время (UTC), дата Ветер
(напр.,м/с)
 
Видим.   Явления Облачность Т
(С)
Тd
(С)
f
(%)
Тe
(С)
Тes
(С)
Комфортность P
(гПа)
Po
(гПа)
Тmin
(С)
Tmax
(С)
R
(мм)
R24
(мм)
S
(см)
03 12.09 В 12 100 м сильн. снег 10/10
[Sc]
-18.3 -20.5 83 -32 -32 опасность
обморожения
985.4 982.5
06 12.09 В 10 1000 м слаб. снег {метель} 9/9
[Sc]
-16.8 -18.9 84 -30 -30 984.1 981.3
09 12.09 СВ 9 8000 м в посл. час снег 9/9
[Sc Ac As]
-15.8 -18.0 83 -27 -27 983.0 980.2
12 12.09 СВ 8 5000 м слаб. снег 10/10
[Sc]
-15.0 -17.4 82 -26 -26 981.9 979.1 -20.2 -14.9
15 12.09 Ю 5 10 км слаб. снег 10/10
[Sc]
-16.2 -19.4 76 -25 -25 982.0 979.2
18 12.09 Ю 4 3000 м слаб. снег 10/10
[Sc]
-15.0 -18.0 78 -23 -23 981.9 979.1
21 12.09 Ю 5 10 км слаб. снег 10/10
[Sc]
-18.1 -20.7 80 -27 -27 982.4 979.5
00 13.09 Ю 6 10 км слаб. снег 10/10
[Sc]
-19.7 -22.3 80 -30 -30 982.6 979.7 -19.8 -14.6
03 13.09 Ю 7 10 км в посл. час снег 9/9
[Sc Ac As]
-22.3 -25.1 78 -34 -34 опасность
обморожения
982.8 979.9
06 13.09 Ю 5 30 км {снег} 3/1
[Sc Ci sp]
-25.2 -28.5 74 -37 -36 опасность
обморожения
982.7 979.8
09 13.09 Ю 6 30 км 1/1
[Sc Ci sp]
-24.8 -28.2 73 -37 -36 опасность
обморожения
982.3 979.4
12 13.09 ЮЗ 5 30 км 3/1
[Sc Ci sp]
-23.6 -26.8 75 -35 -34 опасность
обморожения
982.0 979.1 -25.3 -19.7
15 13.09 Ю 6 30 км 3/1
[Sc Ac trans Ci sp]
-24.1 -27.4 74 -36 -36 опасность
обморожения
981.9 979.0
18 13.09 Ю 7 15 км слаб. снег 3/3
[Sc]
-25.9 -29.3 73 -39 -39 опасность
обморожения
982.7 979.8
21 13.09 Ю 7 20 км слаб. снег 3/1
[Sc Ci sp]
-26.8 -30.1 74 -41 -41 опасность
обморожения
984.0 981.0
00 14.09 ЮЗ 7 20 км в посл. час снег 4/1
[Sc Ci sp]
-27.3 -31.0 71 -41 -41 опасность
обморожения
985.2 982.2 -28.1 -22.4
03 14.09 Ю 3 30 км {снег} 9/0
[Ci sp]
-28.1 -31.6 72 -37 -37 опасность
обморожения
985.7 982.7
06 14.09 З 4 30 км {снег} 9/1
[Sc Ac trans Ci sp]
-26.1 -29.6 72 -37 -36 опасность
обморожения
985.8 982.8
09 14.09 С 3 20 км 9/8
[Sc Ac As]
-24.7 -28.4 71 -32 -32 опасность
обморожения
984.8 981.9
12 14.09 С 5 15 км слаб. снег 10/9
[Sc Ac As]
-22.8 -26.3 73 -33 -33 опасность
обморожения
982.4 979.5 -28.1 -22.8
15 14.09 СВ 11 2000 м слаб. снег 10/10
[Sc]
-19.8 -22.1 82 -34 -34 опасность
обморожения
978.0 975.1
18 14.09 СВ 16 300 м снег 10/10
[Sc]
-15.3 -17.1 86 -30 -30 972.7 969.9
21 14.09 СВ 17 300 м снег {метель} 10/10
[Sc]
-14.9 -16.7 86 -30 -30 969.3 966.5
00 15.09 С 13 400 м снег {метель} 10/10
[Sc]
-15.4 -17.2 86 -29 -29 971.2 968.4 -22.8 -13.8
03 15.09 З 9 3000 м слаб. снег {метель} 10/10
[Sc]
-16.6 -18.7 84 -28 -28 973.8 971.0
06 15.09 З 6 15 км {снег, метель} 9/9
[Sc Ac trans Ci sp]
-16.1 -18.3 83 -26 -26 977.4 974.6
09 15.09 З 5 15 км 9/9
[Sc Ac trans Ci sp]
-16.5 -18.8 82 -26 -26 980.8 978.0
12 15.09 СЗ 2 20 км слаб. снег 9/9
[Sc Ac trans]
-16.5 -18.8 82 -21 -21 983.6 980.8 -16.9 -15.4
15 15.09 штиль 0 30 км 1/1
[Sc Ac trans Ci sp]
-20.2 -22.8 80 -20 -20 987.0 984.1
18 15.09 ЮВ 2 20 км ледяные иглы {снег} 1/1
[Sc Ci sp]
-25.2 -27.8 79 -31 -31 опасность
обморожения
990.4 987.4
21 15.09 Ю 2 30 км {снег} ясно -26.1 -28.5 80 -33 -33 опасность
обморожения
992.4 989.4
00 16.09 Ю 5 30 км {снег} 9/0
[Ac trans Ci sp]
-26.5 -29.3 77 -38 -38 опасность
обморожения
993.7 990.7 -27.4 -16.4
03 16.09 Ю 5 20 км в посл. час снег 9/1
[Sc Ac As Ci sp]
-27.3 -30.2 76 -39 -39 опасность
обморожения
993.6 990.6
06 16.09 ЮЗ 3 30 км {снег} 10/3
[Sc Cs]
-25.9 -28.7 77 -35 -34 опасность
обморожения
992.6 989.6
09 16.09 СЗ 2 30 км 9/1
[Sc Ci sp]
-25.4 -28.5 75 -31 -29 опасность
обморожения
992.5 989.5
12 16.09 В 1 30 км 10/1
[Sc Ac trans Cs]
-25.0 -28.0 76 -26 -25 990.2 987.2 -27.5 -24.6
15 16.09 СВ 2 30 км 9/9
[Sc]
-24.7 -27.7 76 -30 -30 988.3 985.4
18 16.09 С 4 30 км 9/9
[Sc]
-21.4 -24.6 75 -30 -30 986.5 983.6
21 16.09 Ю 3 30 км 9/9
[Sc]
-20.8 -23.8 77 -28 -28 984.5 981.6
00 17.09 Ю 4 20 км слаб. снег 9/8
[Sc Ac As]
-19.3 -23.9 67 -28 -28 981.7 978.8 -25.2 -18.4
03 17.09 Ю 5 20 км слаб. снег 9/5
[Sc Ac trans Ci sp]
-20.5 -23.0 80 -31 -31 опасность
обморожения
977.9 975.0
06 17.09 Ю 5 30 км в посл. час снег 8/4
[Sc Ac trans Ci sp]
-22.5 -25.4 77 -33 -33 опасность
обморожения
974.9 972.0
09 17.09 ЮЗ 4 30 км 6/1
[Sc Ac trans Ci sp]
-22.6 -26.1 73 -32 -30 опасность
обморожения
971.8 968.9
12 17.09 ЮЗ 1 30 км 1/1
[Sc Ac trans Ci sp]
-21.6 -25.3 72 -25 -23 969.4 966.5 -24.0 -18.8
15 17.09 ЮЗ 1 30 км 1/1
[Sc Ac trans Ci sp]
-24.2 -27.4 75 -25 -25 967.3 964.4
18 17.09 СВ 1 30 км 1/1
[Sc Ac trans Ci sp]
-24.6 -27.3 78 -28 -28 964.7 961.8
21 17.09 С 2 30 км 1/1
[Sc]
-27.0 -31.4 66 -33 -33 опасность
обморожения
962.7 959.8
00 18.09 СВ 6 30 км 1/1
[Sc Ci sp]
-26.1 -30.0 70 -39 -39 опасность
обморожения
960.3 957.4 -27.4 -21.0
03 18.09 С 7 30 км 3/3
[Sc Ac trans Ci sp]
-24.4 -28.0 72 -38 -38 опасность
обморожения
959.4 956.5
06 18.09 СВ 7 8000 м слаб. снег 9/9
[Sc]
-19.5 -22.6 76 -31 -31 опасность
обморожения
959.5 956.7
09 18.09 СВ 8 5000 м слаб. снег 9/9
[Sc]
-18.0 -21.5 74 -30 -30 960.4 957.6
12 18.09 СВ 6 10 км слаб. снег 9/9
[Sc Ac As Ci sp]
-18.5 -22.4 71 -29 -29 961.6 958.8 -26.1 -17.6
15 18.09 СВ 3 10 км слаб. снег 9/9
[Sc]
-18.0 -22.8 66 -25 -25 962.8 960.0
18 18.09 В 6 20 км слаб. снег 9/9
[Sc Ac As]
-19.8 -25.2 62 -30 -30 963.6 960.8
21 18.09 В 7 20 км слаб. снег 9/4
[Sc Ac trans Ci sp]
-21.2 -26.2 64 -33 -33 опасность
обморожения
964.3 961.5
00 19.09 В 6 20 км {снег} 3/3
[Sc Ac trans Ci sp]
-22.5 -27.4 64 -34 -34 опасность
обморожения
964.8 961.9 -22.9 -17.6

 

Местоположение метеостанции Сёва (Антарктида): широта -69.00 долгота 39.58 высота над уровнем моря 21 м.

В архиве по умолчанию представлена погода на Сёве за последнюю неделю. Архивные данные за месяц целиком и за предыдущие месяцы, начиная с января 2011 года, Вы можете получить, выбрав интересующий диапазон дат из раскрывающегося списка и нажав кнопку "Ввод!".


*Определитесь, кто Вы:
робот инопланетянин человек

Внимание! Время в таблицах - всемирное. Для получения местного времени необходимо прибавить поправку, которая равна 0 ч.

Смотрите также архив погоды в соседних городах и на ближайших метеорологических станциях:

Погода на Молодежной (Антарктида) (297 км)
Погода на Relay Station (Антарктида) (570 км)

Пояснения к столбцам:

Ветер - указаны скорость ветра в м/с - средняя за 10 мин, порывы в срок и между сроками (в фигурных скобках) и направление, откуда дует ветер: С - северный, СВ - северо-восточный, В - восточный, ЮВ - юго-восточный, Ю - южный, ЮЗ - юго-западный, З - западный, СЗ - северо-западный.
Видимость - горизонтальная дальность видимости в метрах или километрах. При видимости от 1 до 10 км при отсутствии осадков обычно наблюдается дымка, при ухудшении видимости до 1 км и менее - туман. В сухую погоду видимость может ухудшаться дымом, пылью или мглою.
Явления - указаны атмосферные явления, наблюдавшиеся в срок или в последний час перед сроком; фигурными скобками обозначены явления, наблюдавшиеся между сроками (за 1-3 часа до срока); квадратными скобками обозначены град или гололедные отложения с указанием их диаметра в мм.
Облачность - указаны через наклонную черту общая и нижняя облачность в баллах и высота нижней границы облаков в метрах; квадратными скобками обозначены формы облаков: Ci - перистые, Cs - перисто-слоистые, Cc - перисто-кучевые, Ac - высококучевые, As - высокослоистые, Sc - слоисто-кучевые, Ns - слоисто-дождевые, Cu - кучевые, Cb - кучево-дождевые. Подробнее классификацию облаков см. в Атласе облаков (PDF).
T - Температура воздуха - температура, измеренная на высоте 2 м над землей.
Td - Температура точки росы - температура, при понижении до которой содержащийся в воздухе водяной пар достигнет насыщения.
f - Относительная влажность воздуха - влажноcть воздуха, измеренная на высоте 2 м над землей.
Te - Эффективная температура - температура, которую ощущает одетый по сезону человек в тени. Характеристика душности погоды. При расчете учитывается влияние влажности воздуха и скорости ветра на теплоощущения человека.
Tes - Эффективная температура на солнце - температура, которую ощущает человек, с поправкой на солнечный нагрев. Характеристика знойности погоды. Зависит от высоты солнца над горизонтом, облачности и скорости ветра. Ночью, в пасмурную погоду, а также при ветре 12 м/с и более поправка равна нулю.
P - Атмосферное давление - приведенное к уровню моря атмосферное давление.
Po - Атмосферное давление - измеренное на уровне метеостанции атмосферное давление.
Tmin - Минимальная температура - минимум температуры воздуха на высоте 2 м над землей.
Tmax - Максимальная температура - максимум температуры воздуха на высоте 2 м над землей.
R - Количество осадков - Количество выпавших осадков за период времени, мм. При наведении курсора мыши на число - период времени, за который выпало указанное количество осадков.
R24 - Количество осадков - Количество выпавших осадков за 24 часа, мм.
S - Снежный покров - Высота снежного покрова, см. При наведении курсора мыши на число - состояние снежного покрова и степень покрытия местности в баллах.